Regional Weather Roundup
Issued by NWS

Home | Current Version | Previous Version | Graphics & Text | Print | Product List | Glossary On
Versions: 1 2 3 4 5 6 7 8 9 10 11 12 13 14 15 16 17 18 19 20 21 22 23 24 25 26 27 28 29 30 31 32 33 34 35 36 37 38 39 40 41 42 43 44 45 46 47 48 49 50
000
ASUS43 KOAX 200602
RWRNE

WEATHER ROUNDUP FOR NEBRASKA
NATIONAL WEATHER SERVICE OMAHA NE
100 AM CDT FRI APR 20 2018

NOTES: SATELLITE DATA IS BEING USED TO AUGMENT CLOUD COVER ABOVE
       12000 FEET.
       "FAIR" INDICATES FEW OR NO CLOUDS BELOW 12,000 FEET WITH NO
       SIGNIFICANT WEATHER AND/OR OBSTRUCTIONS TO VISIBILITY.


NEZ001>004-019>022-054>056-200700-
NEBRASKA PANHANDLE

CITY           SKY/WX    TMP DP  RH WIND       PRES   REMARKS
SCOTTSBLUFF    PTCLDY    44  27  51 SE29G36   30.09F
6HR MIN TEMP:  44; 6HR MAX TEMP:  61;

ALLIANCE       MOCLDY    42  27  55 SE24G32   30.14R
6HR MIN TEMP:  42; 6HR MAX TEMP:  55;

CHADRON        CLOUDY    47  27  45 SE21G31   30.13R
6HR MIN TEMP:  47; 6HR MAX TEMP:  58;

GORDON         FAIR      44  28  53 SE16G23   30.19F
6HR MIN TEMP:  44; 6HR MAX TEMP:  56;

SIDNEY         MOCLDY    41  25  53 SE24G33   30.11F
6HR MIN TEMP:  41; 6HR MAX TEMP:  58;

$$

NEZ057>060-069>072-079>082-200700-
SOUTHWEST NEBRASKA

CITY           SKY/WX    TMP DP  RH WIND       PRES   REMARKS
NORTH PLATTE   CLOUDY    37  28  70 SE10      30.26S WCI  30
6HR MIN TEMP:  37; 6HR MAX TEMP:  56;

IMPERIAL       CLOUDY    42  26  53 E18       30.20S
6HR MIN TEMP:  42; 6HR MAX TEMP:  58;

LEXINGTON      CLOUDY    42  28  57 SE10      30.31R
MCCOOK         MOCLDY    43  28  55 SE13      30.26S
6HR MIN TEMP:  43; 6HR MAX TEMP:  57;

OGALLALA       CLOUDY    45  28  50 SE17      30.21S
$$

NEZ005>010-023>029-035>040-094-200700-
NORTH CENTRAL NEBRASKA

CITY           SKY/WX    TMP DP  RH WIND       PRES   REMARKS
VALENTINE      MOCLDY    37  30  75 E8        30.29S WCI  31
6HR MIN TEMP:  37; 6HR MAX TEMP:  55;

AINSWORTH      MOCLDY    34  30  86 SE8       30.30S WCI  27
BROKEN BOW     CLOUDY    40  27  59 SE5       30.30S
6HR MIN TEMP:  40; 6HR MAX TEMP:  53;

O`NEILL        CLOUDY    39  30  70 E9        30.36S WCI  33
ORD            CLOUDY    39  27  62 SE8       30.33F WCI  33
6HR MIN TEMP:  31; 6HR MAX TEMP:  53;

THEDFORD       CLOUDY    43  28  57 SE9       30.28S
$$

NEZ041-046>049-061>064-073>077-083>087-200700-
SOUTH CENTRAL NEBRASKA

CITY           SKY/WX    TMP DP  RH WIND       PRES   REMARKS
GRAND ISLAND   CLOUDY    41  28  60 SE8       30.36S
6HR MIN TEMP:  39; 6HR MAX TEMP:  56;

AURORA         CLOUDY    35  25  67 E6        30.37S WCI  30
HASTINGS       CLOUDY    43  26  51 SE9       30.35S
6HR MIN TEMP:  42; 6HR MAX TEMP:  55;

HEBRON         CLOUDY    37  27  67 CALM      30.37S
HOLDREGE       CLOUDY    38  29  69 SE9       30.31S WCI  32
KEARNEY        CLOUDY    40  27  59 SE9       30.34R WCI  34
YORK             N/A     37  27  65 CALM      30.38S
$$

NEZ011>018-030>034-042>045-200700-
NORTHEAST NEBRASKA

CITY           SKY/WX    TMP DP  RH WIND       PRES   REMARKS
NORFOLK        CLOUDY    33  31  92 E6        30.39S WCI  28
6HR MIN TEMP:  33; 6HR MAX TEMP:  53;

ALBION         CLOUDY    36  29  74 CALM      30.37S
BLAIR          CLOUDY    39  28  65 E9        30.42R WCI  33
FREMONT        PTCLDY    41  31  66 E6        30.42R
WAYNE          CLOUDY    33  32  95 CALM      30.43R
$$

NEZ050>053-065>068-078-088>093-200700-
SOUTHEAST NEBRASKA

CITY           SKY/WX    TMP DP  RH WIND       PRES   REMARKS
LINCOLN        CLOUDY    33  26  75 N5        30.41R WCI  29
6HR MIN TEMP:  32; 6HR MAX TEMP:  58;

OMAHA EPPLEY   CLOUDY    43  26  51 CALM      30.43R
6HR MIN TEMP:  43; 6HR MAX TEMP:  57;

BEATRICE       CLOUDY    41  28  60 E5        30.39S
FALLS CITY     CLEAR     42  26  53 SE3       30.42R
6HR MIN TEMP:  41; 6HR MAX TEMP:  57;

NEBRASKA CITY  CLOUDY    44  28  53 SE5       30.42R
PLATTSMOUTH    CLOUDY    41  27  57 E6        30.42R HAZE
$$

NEZ044-045-051>053-067-200700-
OMAHA AREA

CITY           SKY/WX    TMP DP  RH WIND       PRES   REMARKS
OMAHA EPPLEY   CLOUDY    43  26  51 CALM      30.43R
6HR MIN TEMP:  43; 6HR MAX TEMP:  57;

BLAIR          CLOUDY    39  28  65 E9        30.42R WCI  33
FREMONT        PTCLDY    41  31  66 E6        30.42R
MILLARD        PTCLDY    44  28  53 CALM      30.43R
OFFUTT AFB     CLOUDY    39  25  57 E6        30.42R
PLATTSMOUTH    CLOUDY    41  27  57 E6        30.42R HAZE
WAHOO          FAIR      37  25  61 CALM      30.41R
$$



USA.gov is the U.S. government's official web portal to all federal, state and local government web resources and services.